Theta_e
306 312 312 307 308 306 304 304 302 302 302 302 302 303 304 303 302 301 301 301 298 298 303 302 300 299 298 298 294 288 286 286 285 286 285 285 284 284 285 285 285 285 284 284 283 282 281 280 280 280 280 279 279 279 279 278 278 277 277 276 276 275 274 273 272 272 272 271 271 271 271 271 270 271 271 272 274 274 274 274 274 274 275 275 276 276
309 312 308 304 305 304 302 302 302 302 302 302 303 303 304 303 301 300 298 300 299 298 301 301 299 298 296 297 295 288 286 286 286 286 286 286 285 285 285 285 285 285 284 283 282 282 280 280 280 280 279 279 279 279 278 278 277 277 276 276 275 274 273 273 272 272 271 270 271 271 270 270 270 270 271 272 273 273 273 273 273 273 274 274 274 275
312 308 305 303 304 303 303 304 306 305 303 303 302 302 304 302 301 302 300 299 298 297 300 302 299 297 296 295 294 289 287 287 287 286 286 286 286 285 285 285 285 285 285 283 281 281 280 280 280 279 279 279 279 278 278 278 277 276 276 275 275 274 273 272 272 271 271 270 270 270 270 270 270 270 271 272 272 272 272 272 272 272 273 273 273 273
311 305 305 305 303 302 304 307 309 306 305 304 301 302 304 301 299 302 301 299 299 297 299 300 297 297 296 295 294 290 288 288 287 287 287 286 286 286 286 286 285 285 285 284 281 280 280 280 279 279 279 279 278 278 278 277 277 276 276 275 275 274 273 272 272 271 271 270 270 270 270 270 270 270 270 271 271 271 271 272 272 272 272 272 272 272
305 302 304 307 307 304 302 307 306 303 305 305 301 302 303 300 297 299 299 298 299 297 296 297 299 301 298 298 298 292 288 288 288 288 288 286 286 286 286 286 285 285 285 284 283 280 279 279 279 279 279 279 278 277 277 277 277 276 276 275 274 274 273 272 272 271 271 270 270 270 270 270 270 270 270 270 270 270 270 270 271 271 271 271 271 271
303 299 301 306 310 306 303 304 301 300 302 304 304 303 301 299 297 298 298 297 299 299 296 296 303 308 300 299 300 293 289 290 288 288 288 288 286 286 286 286 285 285 284 283 283 281 279 280 280 279 279 278 278 278 278 277 276 276 275 275 274 273 273 272 272 271 270 270 270 270 269 269 269 270 270 269 269 269 269 270 270 270 270 270 271 271
302 299 301 306 310 309 308 304 300 300 302 304 304 301 299 298 296 297 297 297 302 301 297 296 303 308 301 300 299 293 290 290 289 289 289 288 288 287 287 286 285 284 283 282 281 279 279 279 279 279 279 278 278 278 278 277 276 276 275 275 274 273 273 272 272 271 270 270 270 270 270 269 269 269 269 269 269 269 269 269 269 269 270 270 270 270
301 301 303 306 310 309 307 303 300 300 302 305 304 299 298 298 296 297 296 297 300 298 298 296 297 303 303 300 295 291 293 293 291 291 289 288 288 288 287 287 286 285 283 283 282 280 278 279 279 279 279 279 278 278 277 277 276 276 275 274 274 273 273 272 272 271 271 270 270 270 269 269 269 269 269 269 269 269 269 269 269 269 270 270 269 269
300 301 303 304 308 306 302 300 299 299 300 305 303 297 297 298 297 297 297 299 298 298 303 299 294 300 304 300 294 290 294 297 297 296 293 291 289 288 288 287 286 285 283 283 282 281 279 279 280 280 279 279 279 278 277 277 276 275 275 274 273 273 273 272 272 271 271 270 270 269 269 269 269 269 269 269 269 269 269 269 269 269 269 269 269 269
299 301 303 303 303 303 302 301 300 300 299 302 300 297 298 297 297 298 298 301 301 302 307 301 295 299 303 303 298 294 297 301 302 301 299 294 291 289 288 288 287 285 283 282 281 280 280 280 281 280 279 279 279 278 277 276 275 275 274 274 273 273 273 272 272 271 271 270 270 269 269 269 269 269 268 268 268 268 269 268 269 269 269 269 269 269
301 300 301 302 301 299 299 299 299 299 300 300 299 299 300 297 297 299 300 301 304 310 309 299 295 298 302 305 302 300 304 306 303 301 299 296 294 291 289 288 287 285 284 283 281 279 279 280 280 279 279 278 278 278 277 276 275 275 274 274 273 273 272 272 271 271 270 270 270 269 269 269 269 268 268 268 268 268 268 268 269 269 269 269 269 269
303 302 302 302 301 298 298 299 298 298 298 299 299 299 302 303 300 302 306 306 308 313 307 296 295 297 300 304 305 303 303 302 300 300 299 298 297 295 290 287 287 285 284 283 282 280 279 279 278 278 278 278 278 277 276 276 275 274 274 273 273 273 272 272 271 271 270 270 270 269 269 269 268 268 268 268 268 268 268 268 269 269 269 269 268 268
307 303 301 301 299 297 298 302 301 301 300 300 301 301 308 313 308 309 314 310 310 310 300 294 296 298 298 300 302 302 301 299 298 297 297 296 296 295 292 288 286 285 284 283 283 282 279 278 278 278 278 277 277 277 276 276 275 274 274 273 273 273 272 272 271 271 270 270 269 269 269 268 268 268 268 268 268 268 268 268 269 269 268 268 268 268
313 307 301 300 299 296 298 302 302 302 301 299 298 301 309 312 309 313 312 306 309 309 298 292 295 299 301 302 301 301 301 299 296 294 293 293 292 293 291 288 286 285 284 283 282 282 280 279 278 278 278 277 277 277 276 276 275 274 274 273 273 273 272 272 271 270 270 269 269 269 268 268 268 268 268 268 268 268 268 268 268 268 268 268 268 268
312 312 305 300 300 298 298 299 299 299 298 298 295 297 306 308 307 311 311 308 309 306 299 293 297 304 307 306 303 301 299 295 293 291 289 289 288 288 287 287 286 285 284 283 282 281 280 279 279 278 278 277 277 277 277 276 275 274 274 273 273 272 272 272 271 270 269 269 269 268 268 268 268 268 268 268 268 268 268 268 268 268 268 268 268 268
307 310 303 297 296 297 298 297 297 299 298 297 294 298 304 304 304 306 305 303 300 301 302 298 300 304 303 302 299 295 294 293 291 290 289 291 289 286 286 286 285 284 283 282 282 281 280 279 279 278 278 278 277 277 276 276 275 274 274 273 273 272 272 271 271 270 269 269 268 268 268 268 267 268 268 268 268 268 268 267 267 267 267 267 267 267
308 310 301 296 297 295 296 295 295 299 301 297 297 301 298 294 299 303 300 297 294 301 306 301 302 301 298 304 303 296 297 298 296 294 292 291 289 286 287 286 285 285 284 283 282 281 280 279 278 278 278 277 277 277 276 276 275 275 274 273 272 272 271 271 270 270 269 269 268 268 267 267 267 267 267 267 267 267 267 267 267 267 267 267 267 267
308 311 301 297 299 295 293 296 296 296 298 298 300 300 294 293 298 300 300 301 300 304 306 301 303 301 298 307 309 303 303 304 303 300 295 290 288 287 287 286 286 285 284 283 282 280 279 279 278 278 278 278 277 277 276 276 275 275 274 273 272 272 271 271 270 270 269 268 268 268 267 267 267 267 267 267 267 267 267 267 267 267 266 266 266 267
303 310 305 296 297 297 295 297 299 295 293 296 298 296 295 300 304 301 300 305 305 304 305 303 301 300 299 308 311 307 305 304 303 300 296 294 292 289 288 287 286 285 284 283 282 281 279 278 278 278 278 278 277 277 276 276 275 274 274 273 272 272 271 271 270 269 269 268 268 268 267 267 267 267 267 267 266 267 266 266 266 266 266 266 266 266
300 307 308 298 294 297 297 298 303 300 294 295 296 295 296 300 303 301 297 301 303 303 304 304 304 303 304 310 311 305 304 303 302 300 298 298 295 292 291 289 288 286 285 284 282 281 280 279 278 278 278 278 277 277 276 275 275 274 273 273 272 272 271 270 270 269 269 268 268 268 267 267 267 267 266 266 266 266 266 266 266 266 266 266 266 266
301 303 309 303 296 298 301 300 303 304 299 298 298 298 298 296 296 297 295 296 300 304 303 302 305 305 302 306 307 303 303 303 301 300 298 296 295 293 292 290 289 287 286 284 283 281 280 279 278 278 278 278 277 276 276 275 275 274 273 272 272 271 271 270 270 269 269 268 268 267 267 267 267 266 266 266 266 266 266 266 265 265 265 266 266 266
301 302 308 307 302 305 306 298 295 298 298 300 303 303 302 300 299 301 301 296 294 298 301 300 302 303 300 303 303 302 303 302 300 299 296 295 294 293 292 290 288 287 286 285 283 282 280 279 278 278 278 277 276 275 275 275 274 273 273 272 272 271 271 270 270 269 269 268 268 267 267 267 267 266 266 266 266 265 265 265 265 265 265 265 266 266
301 302 304 305 304 304 301 293 291 293 293 295 299 298 300 302 303 306 307 300 295 294 294 295 298 301 301 303 303 301 301 299 296 295 293 293 292 292 291 290 288 286 285 284 283 282 280 279 278 278 277 276 276 275 275 274 274 273 273 272 272 271 271 270 270 269 268 268 267 267 267 266 266 266 266 266 265 265 265 265 265 265 265 265 265 265
300 303 303 306 306 301 295 292 292 292 292 294 297 295 296 301 302 303 303 300 298 297 294 294 298 301 300 302 300 299 299 296 293 292 292 292 291 291 291 290 288 286 285 284 283 281 279 279 278 277 276 276 275 275 274 274 273 273 272 272 272 271 271 270 270 269 268 267 267 267 266 266 266 266 265 265 265 265 265 265 265 265 265 265 265 265
301 305 304 307 311 307 303 301 299 297 294 296 298 295 295 298 297 296 295 294 298 299 296 298 301 301 300 301 299 297 297 296 295 296 295 293 292 292 291 291 289 287 286 285 283 281 280 279 278 277 276 276 275 274 274 273 273 272 272 272 272 271 271 270 269 269 268 267 267 266 266 266 265 265 265 265 265 264 264 264 264 265 265 265 264 264
300 304 303 305 311 311 311 311 308 305 300 297 297 294 294 296 296 296 296 296 298 297 294 299 303 301 299 300 298 298 298 298 298 298 298 296 294 293 292 291 290 289 288 286 284 283 281 279 278 277 276 276 275 274 274 273 273 272 272 272 272 271 271 270 269 268 268 267 266 266 265 265 265 265 265 265 264 264 264 264 264 264 264 264 264 264
300 300 299 303 308 308 308 307 303 302 302 300 298 296 294 295 295 297 299 299 298 296 295 298 300 299 298 298 298 298 299 299 299 298 298 297 296 295 293 293 292 290 289 288 286 284 281 280 279 277 276 276 275 275 274 273 273 272 272 272 272 271 270 270 269 268 267 267 266 265 265 265 265 265 264 264 264 264 264 264 264 264 264 264 264 264
300 300 299 300 302 302 302 301 298 297 299 299 299 299 297 294 293 295 299 298 297 297 298 299 298 298 299 298 299 299 298 298 299 298 297 297 296 295 294 293 293 292 291 289 287 285 282 281 280 278 276 276 275 275 274 273 273 272 272 272 272 271 270 269 269 268 267 266 266 265 265 265 265 264 264 264 264 264 264 264 264 264 263 263 263 263
301 302 300 298 300 299 297 297 297 297 297 297 298 298 297 294 293 295 296 296 296 298 300 300 300 299 299 298 298 298 297 297 297 296 296 295 295 295 294 294 293 292 292 291 289 286 284 282 281 279 277 276 275 275 274 273 273 272 272 272 272 271 270 269 268 267 266 266 265 265 265 265 264 264 264 264 264 264 263 263 263 263 263 263 262 262
299 303 300 296 298 299 297 297 297 296 297 298 297 297 297 295 294 294 295 295 294 296 297 297 297 297 296 296 296 296 296 295 295 294 294 295 295 296 296 295 294 293 293 292 291 289 286 283 282 280 278 277 276 275 274 273 273 272 272 272 271 270 269 269 268 267 266 265 265 265 265 264 264 264 264 263 263 263 263 263 263 263 263 262 262 262
295 302 301 297 299 300 299 299 298 296 298 299 297 297 296 295 294 293 293 293 293 295 295 294 295 294 294 295 295 295 295 294 294 295 296 296 297 297 296 296 295 295 294 293 292 291 288 285 283 280 278 277 277 275 275 274 273 272 272 271 270 270 269 268 267 266 266 265 265 265 264 264 264 264 263 263 263 263 263 263 263 262 262 262 261 261
294 299 299 298 301 304 301 299 299 297 297 298 299 301 299 297 297 296 293 292 295 297 296 294 295 297 297 297 297 296 296 296 297 297 296 296 296 296 295 295 295 295 294 294 293 292 291 288 285 282 279 278 277 276 275 275 273 272 271 271 270 269 269 268 267 266 266 265 265 265 264 264 264 263 263 263 263 263 262 262 262 262 261 261 261 261
294 299 300 297 302 308 303 298 296 297 302 305 303 305 305 300 298 299 296 295 295 296 297 299 300 299 298 297 297 297 297 297 296 296 295 295 295 294 294 294 294 294 294 294 293 293 292 290 286 282 280 279 278 277 276 276 274 272 272 271 270 269 268 267 267 266 266 265 265 264 264 264 263 263 263 262 262 262 262 262 261 261 261 261 260 260
293 298 298 295 301 309 304 298 298 301 309 308 300 299 301 299 298 301 301 300 297 295 296 299 298 297 296 296 296 296 296 295 295 295 294 294 293 293 293 293 293 293 293 293 293 292 292 290 286 282 281 280 279 278 277 276 274 273 272 271 270 269 268 267 267 266 265 265 265 264 264 264 263 263 262 262 262 262 261 261 261 261 260 260 260 260
295 297 297 295 298 304 302 301 306 312 312 304 297 296 297 297 298 300 300 301 299 296 296 297 296 296 296 295 295 295 295 295 295 294 294 293 293 292 292 292 292 292 292 292 292 292 291 289 286 283 281 280 279 278 277 275 274 273 272 271 270 269 268 267 266 266 265 265 265 264 264 263 263 262 262 262 262 261 261 261 260 260 260 260 260 260
299 299 298 296 298 301 301 303 307 309 306 300 297 296 295 296 299 298 298 300 298 297 297 296 296 296 295 295 295 295 295 295 294 294 295 295 294 293 292 292 292 292 292 291 290 290 289 288 286 284 282 280 278 277 276 275 274 272 271 270 270 269 268 267 266 266 265 265 265 264 264 263 263 262 262 261 261 261 261 260 260 260 260 259 260 260
298 299 298 297 298 298 300 302 303 302 303 303 299 296 295 296 296 295 296 298 296 296 296 296 296 296 295 295 295 294 294 294 294 295 296 295 294 293 292 292 292 291 291 290 289 288 287 287 286 284 282 280 278 277 276 275 273 272 271 270 269 268 267 267 266 266 265 265 265 264 264 263 262 262 262 261 261 260 260 260 259 259 259 259 259 260
294 297 298 297 298 297 298 301 303 305 309 309 303 297 295 293 291 291 293 295 296 297 297 296 296 295 295 295 294 294 294 294 295 296 295 294 293 292 292 291 291 290 290 289 288 287 286 286 284 282 281 279 277 276 276 274 273 272 270 269 269 268 267 266 266 265 265 265 265 264 264 263 262 262 261 261 260 260 260 259 259 259 259 259 259 260
294 296 297 297 298 298 298 301 304 306 308 307 302 298 294 290 289 290 293 298 300 299 297 296 295 294 294 294 294 294 294 294 295 295 293 293 292 291 291 291 290 290 289 289 288 286 285 284 282 280 279 277 276 276 275 273 272 271 270 269 269 268 267 266 266 266 266 265 265 264 263 263 262 261 261 260 260 260 259 259 259 259 259 259 260 260
296 297 297 297 298 298 298 301 302 302 302 302 300 296 291 288 289 293 299 303 301 298 295 295 294 294 294 294 293 294 294 294 294 293 292 292 291 291 291 290 290 289 289 288 288 286 284 282 280 279 277 277 276 275 274 273 272 271 270 269 268 267 267 267 267 267 266 265 264 264 263 262 262 261 261 260 260 259 259 259 259 259 259 260 260 260
296 295 293 295 299 298 296 299 301 300 302 304 301 294 288 289 292 298 302 301 297 296 295 294 294 294 293 293 293 293 293 293 292 292 291 291 291 290 290 289 289 289 288 288 287 286 284 281 279 278 277 277 276 274 273 272 271 270 270 269 268 267 268 269 268 267 266 265 264 263 263 262 261 261 260 260 259 259 259 259 259 259 259 260 260 260
298 297 294 295 298 296 295 297 299 301 302 300 296 291 289 293 299 300 300 298 295 295 294 293 294 293 293 293 293 292 292 292 292 291 291 291 290 290 289 289 289 289 288 288 287 286 284 281 279 278 277 277 275 274 273 272 270 270 270 268 268 270 270 269 267 266 265 265 264 263 262 262 261 261 260 260 259 258 258 259 259 259 260 260 260 261
300 301 302 301 298 295 295 298 300 302 300 295 294 293 294 297 300 298 296 295 294 294 293 293 293 293 292 293 292 292 292 291 291 291 291 290 290 290 289 289 288 288 288 287 286 286 284 282 280 278 278 276 275 274 273 271 270 270 269 268 270 271 270 268 267 266 265 264 264 263 262 261 261 260 260 259 259 258 258 259 260 260 260 261 261 261
299 299 303 302 298 297 301 303 303 302 299 295 295 297 297 297 297 295 294 294 293 294 294 293 293 293 292 292 292 292 292 291 291 291 290 290 290 289 289 289 288 287 287 286 286 286 285 283 281 279 278 276 274 273 272 271 270 269 268 270 272 271 268 267 266 265 265 264 263 263 262 261 261 260 259 259 259 258 258 259 260 260 261 261 261 261
299 298 299 300 299 299 301 302 301 298 297 296 295 296 296 295 295 295 294 293 293 294 293 292 292 292 292 292 292 291 291 291 291 291 290 290 290 289 289 288 288 287 287 286 286 285 284 283 281 279 278 276 275 273 272 271 270 269 269 271 272 270 268 267 266 265 264 264 263 262 262 261 260 260 259 259 259 258 259 260 260 260 261 261 261 261
297 295 296 297 300 300 298 298 298 296 297 297 296 296 296 295 295 295 294 293 293 293 293 292 292 292 291 291 291 291 291 291 291 290 290 290 289 289 289 288 288 287 287 286 286 285 284 283 282 279 277 276 275 273 272 271 270 270 271 271 271 269 269 267 265 264 264 263 262 262 261 260 260 260 259 259 259 259 259 260 260 260 261 261 261 261
297 294 294 297 299 299 298 299 299 296 297 297 296 296 296 295 295 295 293 293 293 292 292 292 291 292 291 291 291 291 291 291 290 290 290 290 289 289 288 288 288 287 286 286 285 285 284 283 282 280 278 277 276 274 273 271 270 271 271 271 270 270 268 266 265 264 263 262 262 261 261 260 260 259 259 259 259 259 259 260 260 260 260 261 262 262
297 294 296 298 298 297 297 298 297 296 296 296 295 296 295 294 295 294 293 293 292 291 291 291 291 291 291 291 291 291 290 290 290 290 290 289 289 288 288 288 287 287 286 286 285 285 284 283 282 281 279 278 277 276 273 271 271 271 270 270 270 269 267 266 265 264 263 262 262 261 261 260 260 259 259 259 259 260 260 260 260 260 261 262 263 263
295 296 298 298 296 296 297 297 296 296 296 296 296 296 295 294 294 293 292 292 292 291 292 291 291 291 290 290 291 290 290 290 290 289 289 289 288 288 288 287 287 286 286 286 285 284 283 282 282 281 280 279 278 276 274 272 272 271 270 269 269 268 267 266 265 264 263 262 261 261 260 260 260 259 259 259 259 260 260 261 261 261 262 263 264 264
295 298 299 297 296 297 297 296 296 296 295 295 295 294 294 293 293 292 292 292 291 292 292 291 291 291 290 290 290 290 290 290 289 289 289 288 288 288 287 287 286 286 286 285 285 284 284 283 282 281 280 279 278 277 275 273 272 271 270 269 268 268 267 266 264 263 262 262 261 261 260 259 259 259 259 259 259 260 260 261 261 262 263 264 264 265
297 297 297 296 297 297 296 295 295 294 294 294 293 293 293 293 292 292 292 292 292 291 291 291 291 290 290 290 290 290 290 290 289 289 289 288 288 287 287 286 286 285 285 285 285 284 283 283 282 281 280 279 278 277 275 273 272 271 270 269 268 267 267 266 264 263 262 261 261 260 260 259 259 259 259 259 259 259 260 261 261 262 263 264 265 266
Wind_Speed
3 5 4 1 3 4 5 5 5 4 4 4 2 3 5 5 6 5 4 5 2 2 6 6 7 10 10 9 8 8 8 10 12 11 10 9 8 9 9 9 10 8 10 13 13 11 11 11 11 11 11 10 10 12 14 14 16 16 17 18 18 19 19 18 18 15 15 17 16 14 14 16 18 17 15 11 8 11 14 13 12 12 12 11 10 10
5 6 1 5 6 4 5 6 4 4 4 2 2 3 4 3 7 6 3 4 3 2 6 5 8 12 11 10 7 7 9 12 14 13 13 12 10 9 10 11 10 7 7 11 13 13 12 13 13 13 12 11 12 14 15 15 16 16 16 17 17 18 17 16 16 13 14 15 12 12 16 17 17 15 13 12 11 11 12 11 11 12 12 12 12 12
6 3 5 6 3 4 4 3 5 5 4 2 1 1 3 3 5 7 3 2 2 1 5 5 8 13 10 9 7 8 11 12 11 12 12 11 11 10 10 10 9 8 7 8 12 14 14 14 14 15 13 13 14 15 15 16 16 15 16 16 16 16 15 15 14 12 14 14 10 12 15 15 15 14 12 11 10 10 10 10 12 13 13 14 15 14
3 2 5 1 4 5 2 4 6 5 2 0 1 1 4 3 1 5 4 2 3 3 4 5 7 10 7 4 5 8 10 7 5 8 9 8 11 11 10 10 10 11 10 9 9 12 15 15 16 16 15 14 15 16 16 16 16 15 15 16 16 15 14 14 13 12 14 13 11 14 14 13 13 13 12 11 10 11 13 13 14 15 15 16 16 16
2 3 3 5 4 4 2 4 5 4 4 3 4 4 4 4 2 6 5 5 6 2 2 5 6 6 4 4 6 4 4 7 6 6 9 9 10 9 8 10 11 11 11 10 8 10 13 16 18 18 16 16 17 18 18 17 16 16 16 15 15 14 13 13 13 13 13 12 13 15 14 12 12 12 12 12 13 14 15 16 16 17 17 16 15 13
1 1 3 3 5 5 4 2 2 2 4 5 4 6 5 5 6 7 6 6 5 2 1 3 4 5 4 3 7 3 2 8 5 7 12 11 9 8 10 11 10 10 10 10 9 10 13 16 18 18 17 18 20 20 19 18 17 16 16 15 14 14 13 13 13 13 12 11 13 14 13 12 12 11 10 11 14 15 16 16 17 17 15 13 11 10
1 2 2 3 4 5 5 2 2 3 4 5 3 5 4 5 6 7 5 2 1 2 3 3 2 4 5 4 6 4 5 9 5 8 13 11 9 10 11 12 10 10 9 9 10 12 13 15 17 18 19 22 22 21 19 18 17 17 16 15 14 14 14 13 13 12 12 12 13 11 10 11 11 11 12 13 14 15 16 15 16 15 12 11 12 13
2 2 4 4 5 5 4 3 3 5 4 4 3 1 5 7 7 5 2 2 2 3 4 3 3 2 5 5 3 3 5 9 8 11 13 11 12 12 13 13 12 12 11 9 9 10 14 18 19 20 21 23 23 21 19 19 19 17 16 15 15 14 14 14 13 12 12 13 13 11 10 10 11 12 14 15 15 15 15 14 15 14 12 13 14 14
2 1 1 2 4 2 1 2 3 5 1 6 5 4 6 5 3 1 3 3 2 2 4 4 2 1 6 5 2 3 4 8 10 11 12 12 13 13 14 14 14 13 11 10 10 11 15 19 21 21 22 22 21 20 21 21 19 18 16 16 15 15 15 15 14 13 13 13 13 12 11 11 11 12 14 15 15 15 14 15 15 13 13 14 14 13
1 2 4 5 3 2 4 4 4 6 4 6 6 6 2 2 1 2 4 2 2 3 3 5 1 1 6 6 2 2 2 6 9 9 9 10 10 11 12 13 13 11 9 10 11 14 18 20 21 21 21 21 21 21 22 21 20 19 17 17 17 17 16 16 15 14 14 14 13 13 12 12 12 13 14 14 14 13 14 15 14 13 14 14 13 13
2 2 2 2 1 3 3 3 4 6 5 5 6 5 3 4 3 3 2 2 4 3 5 5 0 2 3 6 3 3 4 6 6 7 8 8 8 10 10 11 11 10 10 9 10 14 19 20 20 20 20 21 21 21 22 22 21 20 19 18 19 18 17 16 16 15 15 15 14 14 13 13 13 14 13 13 12 12 13 14 13 14 14 14 13 13
5 2 1 2 1 2 2 3 0 1 2 3 3 3 3 3 3 3 4 4 3 3 5 4 2 2 2 6 5 5 6 6 6 8 10 9 9 9 9 10 10 9 10 9 8 11 14 16 18 19 21 22 22 23 24 24 23 22 21 20 20 20 18 17 17 16 16 16 15 14 14 15 14 13 13 12 12 13 13 13 14 14 14 14 14 14
3 2 2 3 1 2 2 2 4 4 4 4 3 4 4 3 4 4 4 2 1 4 3 2 2 1 5 9 9 10 11 9 8 9 10 10 10 9 8 9 8 8 8 9 8 8 10 13 16 19 22 23 24 25 26 26 25 24 23 22 22 21 19 18 17 17 17 17 16 15 15 16 15 14 13 14 14 14 13 13 13 13 14 14 15 15
4 3 3 1 0 1 2 2 2 3 3 4 2 3 3 3 4 4 4 3 2 4 3 2 1 3 5 7 9 12 11 8 6 8 9 10 11 10 8 7 7 8 8 9 9 8 9 13 18 20 22 24 25 27 27 26 26 25 24 23 23 22 20 18 18 18 18 18 17 16 16 16 16 15 15 15 15 14 13 13 14 15 15 16 17 16
1 4 2 1 1 1 2 2 3 2 1 1 2 3 2 3 2 2 3 2 4 6 4 1 1 3 3 4 6 8 8 6 5 7 7 9 10 8 6 6 7 8 9 8 9 9 12 17 20 21 23 24 26 27 27 27 26 25 25 25 24 23 21 19 18 19 19 19 17 16 16 16 16 16 15 15 14 14 14 14 15 17 17 17 17 17
1 5 3 1 1 2 2 2 3 4 1 1 2 3 1 2 3 2 3 3 1 4 4 2 3 5 4 9 8 3 6 7 6 6 6 9 10 6 6 9 8 9 9 8 9 10 14 19 21 22 23 25 26 27 27 27 27 27 27 26 25 24 21 18 18 19 19 18 17 17 17 17 16 15 15 15 15 15 16 16 16 16 16 17 17 18
0 5 3 2 2 2 2 3 2 2 0 0 1 1 2 2 5 3 1 1 4 2 4 2 4 5 4 8 8 5 6 8 7 7 7 10 9 6 8 11 10 10 10 10 10 11 14 18 21 23 25 26 27 27 28 29 29 28 28 26 25 23 21 19 19 19 19 18 17 18 17 16 16 16 17 17 17 17 17 17 16 16 17 18 18 18
1 4 4 1 1 1 1 1 2 2 2 2 0 3 2 2 4 3 1 4 4 0 4 3 5 6 3 4 7 6 7 9 9 8 8 9 9 8 11 12 12 12 11 10 11 12 15 18 21 24 26 28 29 29 30 30 29 29 27 26 25 23 21 20 19 19 19 18 17 17 17 16 16 17 17 18 17 17 17 17 17 18 19 19 18 18
2 2 5 1 1 3 3 3 3 3 2 2 2 2 2 1 0 1 1 2 2 2 5 5 7 5 3 4 6 7 9 10 10 8 7 9 10 10 12 13 13 13 10 10 11 11 13 18 22 24 27 29 30 30 30 30 29 29 28 27 25 23 21 20 19 19 19 18 17 17 17 17 17 17 17 17 16 16 17 18 19 19 19 18 18 18
2 0 3 2 1 3 3 1 1 1 2 2 1 1 2 2 3 1 0 1 1 2 4 5 6 5 6 6 5 9 11 10 10 9 8 10 11 10 10 11 11 11 10 10 11 10 12 18 24 26 28 29 30 31 31 30 30 30 28 27 25 24 21 20 20 20 20 19 18 18 18 17 17 17 17 16 16 17 18 19 19 18 18 18 18 18
2 1 3 4 3 2 1 2 4 4 3 2 1 0 1 1 2 0 0 2 3 2 2 2 4 8 7 5 7 12 12 9 9 9 9 11 11 10 11 10 10 10 10 10 10 10 12 18 23 26 28 29 29 29 30 31 31 30 29 28 26 24 22 21 22 21 21 20 18 18 18 17 18 18 17 17 17 18 19 19 19 19 19 18 17 17
1 2 3 4 3 3 3 2 2 4 4 4 3 4 3 3 3 1 2 2 2 2 4 2 3 11 8 4 7 10 9 9 9 9 10 12 13 13 12 11 11 10 11 11 11 10 11 16 21 23 25 26 26 28 30 32 32 31 30 29 26 25 23 23 22 22 22 21 19 19 19 19 18 18 18 18 19 19 20 20 20 19 18 17 17 18
2 3 1 5 5 4 4 1 2 2 3 4 3 3 3 4 5 4 3 3 0 1 2 3 1 10 7 5 6 7 7 9 9 8 10 13 14 14 14 13 11 11 12 11 10 10 11 16 19 21 23 25 27 30 31 32 32 31 31 29 27 26 25 23 23 23 22 21 20 20 20 20 20 20 19 19 20 20 20 20 19 17 17 17 18 19
2 3 0 5 5 2 2 2 2 2 2 2 1 2 4 3 3 5 5 3 2 3 2 2 3 9 8 3 5 6 7 8 9 10 12 13 13 13 14 14 11 11 12 12 10 10 11 15 16 17 20 23 26 29 30 30 31 31 31 29 28 27 25 23 23 22 22 21 21 21 21 22 21 20 20 20 20 20 19 19 18 17 17 18 19 19
1 1 1 3 6 6 5 4 4 3 1 2 2 2 3 4 6 4 2 2 2 5 6 4 5 9 7 3 3 7 10 11 13 13 11 11 12 13 12 12 11 11 11 12 11 10 10 12 13 15 19 22 24 27 29 30 30 31 31 30 28 27 24 23 23 23 22 21 21 22 22 22 21 20 21 21 20 19 18 18 18 17 17 18 18 18
2 2 2 1 2 4 4 4 3 2 2 2 2 3 3 5 8 4 2 3 3 5 6 5 7 10 11 10 11 13 14 16 18 16 13 10 11 12 12 12 11 10 11 13 12 10 10 10 12 16 20 22 24 26 28 29 30 30 30 30 28 26 24 23 23 22 22 21 21 22 21 20 20 19 19 19 19 18 18 17 17 17 18 18 18 18
2 1 3 5 7 7 7 5 0 2 1 3 4 5 6 6 6 5 4 4 5 3 4 9 13 14 17 17 16 16 15 16 18 18 16 14 12 12 12 12 12 11 12 12 11 10 10 11 12 16 20 23 25 27 28 29 30 30 30 30 28 25 24 23 23 22 21 21 22 21 19 18 18 18 17 17 16 17 17 17 17 18 18 17 17 18
4 3 5 6 10 10 8 8 5 3 5 8 7 6 8 8 7 7 7 7 5 4 5 12 11 9 16 19 17 18 19 17 18 19 18 17 16 15 14 15 15 14 14 12 11 11 12 12 12 13 18 23 24 26 27 28 29 30 30 30 27 25 25 23 23 23 22 21 22 21 19 18 17 17 16 16 15 16 17 18 18 18 17 17 18 19
4 4 4 3 8 10 8 11 10 7 7 7 7 8 8 9 11 14 15 10 8 5 12 15 10 10 16 21 20 20 19 18 20 20 18 18 18 17 16 17 17 17 16 14 14 13 12 13 13 12 17 21 23 26 28 28 29 29 28 28 26 25 25 24 23 23 22 21 21 21 19 18 17 17 16 16 15 16 17 18 18 17 18 19 19 19
4 4 3 0 6 10 8 9 9 6 6 7 10 11 9 10 14 16 16 11 9 12 19 19 20 19 19 21 23 21 19 16 16 17 17 18 19 19 18 18 17 17 17 16 15 14 12 13 13 13 15 18 23 28 30 30 30 30 29 28 27 26 25 24 23 23 22 22 21 20 19 18 17 18 17 17 16 15 16 17 17 18 19 19 19 19
1 3 1 3 4 9 6 4 3 4 5 9 13 11 8 9 11 12 12 9 7 12 18 17 17 17 17 18 18 17 14 12 13 17 19 19 19 20 20 21 20 19 18 18 17 15 13 13 13 12 14 18 24 29 32 32 31 30 29 28 27 27 25 24 24 23 23 23 21 20 18 17 18 19 18 17 15 16 17 17 18 19 19 19 20 19
2 2 2 5 4 7 3 4 7 6 6 9 14 13 7 6 6 7 7 6 7 9 12 10 9 12 13 13 13 13 12 12 15 19 19 20 22 22 22 22 22 20 20 20 18 16 15 13 13 12 15 20 24 27 32 34 31 29 29 29 28 26 25 24 24 24 24 23 22 19 18 17 18 19 18 17 17 17 18 18 18 18 19 20 20 19
3 2 1 3 2 6 4 6 8 7 6 4 5 5 5 4 4 4 4 7 11 8 5 7 9 11 13 15 17 19 18 17 17 17 17 19 22 23 22 20 20 20 20 20 20 19 17 14 13 15 19 22 25 27 32 34 33 32 31 29 26 25 24 23 24 23 23 23 22 20 19 19 19 19 19 19 18 18 18 17 18 18 19 20 19 18
3 4 2 1 2 5 7 9 8 6 4 3 1 3 4 4 5 5 7 11 11 8 7 9 12 14 16 16 18 20 21 19 17 16 17 17 17 18 20 19 19 20 20 20 20 20 18 15 15 18 22 24 26 28 29 32 33 32 30 27 24 23 23 23 23 22 23 23 22 21 21 21 20 20 20 19 18 18 17 17 18 19 19 19 18 18
4 4 2 1 1 4 6 7 6 4 5 4 2 3 5 6 8 8 9 15 14 9 10 12 14 16 16 15 15 18 20 21 19 17 17 17 13 13 15 18 19 20 20 20 21 21 20 19 18 19 22 25 25 24 24 28 31 29 26 25 24 23 23 23 23 22 22 22 22 22 21 21 20 20 20 18 17 17 18 18 18 18 18 18 18 18
6 4 2 1 1 3 4 4 1 7 7 4 3 3 2 1 1 2 6 12 15 12 7 9 13 14 13 14 15 17 20 22 19 12 11 12 10 10 14 17 18 19 19 19 20 21 23 25 24 23 23 23 21 21 24 28 30 28 26 25 25 24 24 24 24 24 23 22 22 22 22 21 20 20 19 18 18 18 18 18 18 17 17 18 18 18
6 4 1 1 1 1 1 2 3 7 9 6 3 2 1 1 3 4 4 10 15 12 6 7 11 14 15 16 17 17 19 20 17 9 6 8 12 16 18 18 18 19 20 23 26 28 30 33 31 28 24 20 19 22 26 28 29 29 27 25 25 24 24 24 25 25 24 23 22 22 21 20 19 19 19 18 18 19 19 19 18 16 17 17 18 18
3 2 3 2 1 2 1 3 4 5 4 4 5 4 3 2 2 1 2 7 12 8 5 7 13 17 18 17 18 18 16 16 15 12 13 18 21 21 21 21 22 24 25 27 31 32 35 36 32 27 23 19 20 23 26 28 29 29 27 26 26 25 25 26 26 26 24 23 22 21 21 20 19 19 19 19 19 19 19 18 17 17 16 17 18 17
5 2 4 2 1 1 3 1 3 3 4 6 7 7 3 2 2 1 1 5 7 5 7 12 16 18 17 16 17 15 12 12 14 14 17 23 24 22 22 22 24 28 31 32 32 31 34 35 30 24 19 18 22 24 26 28 28 28 28 28 27 26 27 28 28 27 25 23 21 20 19 18 18 18 19 19 20 19 18 18 17 17 16 16 16 15
5 4 2 1 2 1 3 2 3 4 6 7 7 6 2 3 4 2 6 8 8 10 12 13 16 17 16 14 14 11 9 10 12 15 19 22 22 22 22 22 22 25 30 33 34 35 35 32 27 22 20 23 25 24 26 28 28 28 29 27 26 28 31 31 29 26 23 21 19 19 18 17 17 18 18 19 19 18 18 18 18 16 15 15 14 14
2 1 1 2 3 3 3 3 4 4 7 8 6 3 1 2 2 4 8 10 13 17 15 13 15 16 15 13 11 9 9 11 13 16 19 19 19 21 24 27 28 29 30 31 34 35 34 31 27 24 26 28 25 23 26 29 28 29 29 26 27 31 34 31 27 24 21 19 18 18 18 17 17 17 18 18 18 18 18 18 17 16 15 14 14 14
1 1 1 1 2 2 3 3 4 5 5 4 2 1 1 2 5 6 8 10 12 15 16 14 14 14 14 14 12 10 13 16 16 17 18 18 18 19 21 25 28 30 31 33 34 34 32 30 27 26 29 29 24 23 28 29 30 31 29 27 31 36 33 27 24 22 20 19 18 18 18 17 17 17 16 16 16 17 18 17 15 15 14 14 14 14
3 2 1 2 3 1 0 0 2 5 4 3 1 2 0 1 7 10 10 11 11 12 14 14 12 12 13 15 15 15 17 19 19 18 18 18 18 18 19 22 22 24 28 31 33 35 34 30 27 28 30 27 24 25 28 30 31 31 29 31 36 35 28 24 23 22 20 19 19 19 18 17 16 15 15 15 16 16 16 15 14 14 13 13 13 14
3 2 1 3 2 1 0 2 3 6 6 1 1 5 5 6 9 10 10 11 11 11 11 11 12 14 13 14 17 18 18 19 19 19 18 19 19 18 19 21 22 24 28 30 32 35 34 30 28 31 30 26 24 25 29 32 31 28 29 36 36 29 24 24 22 21 21 20 20 19 18 17 16 14 14 14 15 15 15 14 14 14 13 12 13 14
3 3 2 3 3 3 4 7 7 8 10 5 3 7 10 11 10 7 7 9 10 10 9 10 14 17 16 16 17 17 16 17 19 19 18 18 19 18 19 22 24 26 28 31 33 35 33 31 30 30 29 26 24 24 30 35 32 26 30 36 32 26 26 25 22 22 22 21 21 20 18 17 16 14 14 14 14 14 14 14 13 13 12 12 12 13
1 1 2 1 3 4 5 8 7 8 11 11 8 8 10 11 8 7 8 10 10 10 10 10 13 16 16 16 16 16 17 18 19 19 18 17 18 19 20 22 26 28 30 31 33 34 34 32 30 28 27 26 24 24 30 34 33 32 33 32 27 26 27 25 23 23 23 22 22 20 18 17 16 14 13 13 14 14 14 13 13 13 13 13 12 12
2 0 1 1 3 4 5 7 8 9 13 16 15 12 11 9 7 7 9 12 13 13 13 12 13 15 16 16 16 16 18 18 18 18 18 16 18 19 19 20 23 28 30 30 33 34 33 30 28 26 26 27 26 26 28 31 35 38 35 28 24 26 27 25 25 25 23 23 22 20 18 18 16 14 13 13 14 15 14 13 13 14 14 14 12 12
2 1 2 3 4 5 8 12 13 12 13 14 13 11 10 10 11 11 12 13 13 13 14 15 15 13 13 14 16 17 18 18 18 18 17 15 16 17 17 18 23 28 31 33 35 35 31 27 27 27 27 28 29 27 27 29 34 38 35 28 26 26 27 27 27 26 24 24 22 20 19 18 16 14 14 14 15 15 15 14 14 14 15 13 12 12
2 2 3 4 5 6 9 12 14 13 12 11 10 9 10 12 14 15 14 14 13 13 15 17 17 14 12 13 13 14 17 18 17 17 17 16 15 15 17 21 26 29 32 34 35 34 30 27 28 28 28 30 32 29 26 28 33 36 34 31 29 28 28 29 28 26 24 23 22 20 19 17 16 15 14 14 15 15 16 15 14 14 13 11 10 11
3 5 4 4 5 7 9 11 12 12 12 12 12 13 14 15 16 16 15 14 14 14 14 16 18 18 16 16 14 12 14 16 17 17 17 15 15 17 20 24 27 29 32 35 35 34 31 29 28 28 29 31 34 30 27 29 31 32 33 33 32 31 31 30 28 26 25 23 22 21 20 18 16 15 14 14 14 14 15 15 14 14 13 11 10 12
2 5 6 5 6 10 13 13 11 9 11 14 16 17 16 16 15 15 15 15 15 16 15 14 16 18 17 19 21 18 15 16 18 19 16 16 19 22 25 27 28 28 31 34 33 31 31 30 29 29 29 32 34 31 27 28 29 29 31 33 35 35 34 32 30 28 27 25 24 23 21 19 17 15 14 15 14 13 13 13 13 15 15 13 12 12
Wind_Direction
65 66 53 130 240 239 209 187 172 182 175 179 196 213 249 278 280 270 269 281 359 339 268 251 261 266 268 261 228 208 203 218 233 235 236 232 227 231 229 235 233 231 234 223 222 233 235 228 228 235 239 250 264 270 280 287 293 299 303 308 313 319 324 324 329 332 323 328 336 334 328 329 329 331 333 328 336 336 324 328 336 331 336 340 348 357
60 76 74 232 226 209 185 179 142 95 99 118 178 225 276 268 272 289 282 281 11 16 277 283 288 271 259 260 237 184 198 220 224 225 231 230 228 230 230 235 235 236 235 220 226 234 228 224 227 233 238 250 261 267 277 282 288 294 299 305 311 318 321 322 328 323 318 333 340 325 322 325 327 329 331 332 339 331 319 327 333 327 327 331 337 340
42 81 245 244 183 116 97 112 82 72 93 91 135 183 297 272 280 303 294 256 13 334 290 325 309 282 266 256 231 189 205 224 221 222 231 228 228 232 229 233 234 236 233 223 232 233 225 225 229 232 240 253 259 264 272 276 282 289 294 303 309 315 318 321 325 313 314 332 336 325 325 324 322 323 325 327 327 317 310 320 325 321 320 324 329 329
45 236 237 199 129 130 67 31 52 50 57 118 222 211 280 299 351 301 306 336 298 262 275 306 296 285 292 288 249 212 216 243 243 233 241 232 230 234 230 231 229 227 228 227 235 232 224 223 226 234 246 253 253 257 264 269 276 284 291 299 306 311 316 320 320 309 313 325 329 332 334 323 317 318 318 312 306 307 308 311 316 318 319 322 326 327
107 212 156 74 74 132 114 21 60 51 341 272 222 200 238 290 257 252 290 326 312 296 261 295 299 287 323 334 282 244 216 254 257 248 254 241 235 243 244 242 233 227 226 224 231 231 222 222 230 241 248 247 246 251 259 265 272 280 288 296 302 306 310 316 316 310 314 321 327 338 339 327 320 322 324 318 313 315 316 315 315 316 320 324 327 330
130 197 136 78 38 66 92 34 89 104 338 308 242 202 214 280 270 267 304 330 340 356 286 354 356 296 310 294 271 293 255 253 239 237 252 248 239 241 244 244 236 230 228 223 230 233 228 231 236 242 242 239 243 251 259 264 269 276 284 290 295 298 302 309 313 311 310 313 326 340 338 327 323 321 319 318 315 314 315 315 314 315 322 329 328 325
166 19 70 114 73 52 60 16 227 131 35 330 253 193 217 279 283 284 296 316 347 289 283 46 90 269 303 286 269 311 287 267 255 242 251 252 243 236 238 241 234 229 229 227 233 234 233 234 233 236 238 237 243 254 260 261 263 270 278 283 287 290 294 299 306 308 303 306 319 332 329 318 312 305 303 306 307 307 309 310 311 317 325 324 319 316
177 20 29 66 66 52 47 352 240 137 72 290 231 176 294 299 299 286 240 193 233 272 318 8 115 231 291 275 278 334 296 280 275 258 255 249 242 238 238 239 233 229 225 222 229 229 228 230 230 235 240 241 247 255 256 255 259 265 271 276 278 281 286 291 296 298 296 301 309 315 317 308 299 294 297 301 302 302 304 306 310 316 316 312 314 317
156 212 236 112 71 56 198 246 193 140 133 263 261 306 301 291 281 226 150 182 263 357 330 319 74 149 274 271 329 5 308 286 276 262 256 248 241 239 238 238 235 232 225 220 224 225 225 228 233 240 244 246 250 252 253 254 257 261 265 268 270 274 278 284 289 288 290 295 299 301 302 297 294 292 292 296 298 300 301 303 306 307 306 310 316 318
142 241 203 147 123 218 239 239 169 154 219 275 302 312 333 63 37 91 115 149 25 23 278 270 29 62 275 279 319 14 277 265 265 261 256 251 246 239 237 239 236 233 228 224 226 228 229 233 239 243 244 247 249 250 252 253 253 255 258 260 263 269 274 279 282 281 283 288 289 290 290 290 290 289 290 291 291 295 300 300 299 300 302 308 313 313
334 297 191 125 167 200 233 263 175 175 243 315 343 330 17 44 30 52 70 89 57 343 259 252 276 93 292 284 252 215 225 225 239 266 268 261 256 246 238 239 235 230 228 225 228 232 234 239 242 240 240 245 247 247 246 246 248 250 253 255 259 265 271 276 277 276 277 281 282 282 282 282 285 285 283 280 279 287 295 294 293 297 301 303 306 309
342 355 239 291 260 132 53 342 281 173 301 356 11 346 5 359 11 19 353 40 63 285 260 259 288 117 229 270 251 239 247 226 222 254 267 264 259 251 241 238 234 229 228 226 227 232 234 236 235 233 236 242 242 240 241 242 244 247 249 251 255 260 268 272 273 271 272 275 276 276 275 276 281 281 272 266 270 278 285 287 290 294 298 300 302 306
319 269 284 323 332 93 65 354 341 355 11 24 23 24 25 356 5 6 336 10 207 252 224 216 308 258 229 254 261 264 266 252 232 237 253 262 261 255 245 239 236 229 228 228 228 229 227 228 229 229 233 236 236 236 238 240 241 244 247 247 250 258 266 270 269 268 268 270 269 270 271 273 278 276 265 260 264 270 275 279 284 289 294 297 300 302
332 305 319 353 315 57 98 98 340 323 357 14 22 58 66 45 12 335 306 332 296 275 247 209 294 285 272 270 249 250 263 262 247 243 250 258 261 260 255 246 242 236 231 230 230 230 227 227 229 231 233 234 234 236 237 238 240 242 244 244 248 256 264 266 266 265 264 265 265 266 267 270 273 270 262 259 261 264 267 270 276 283 288 292 294 297
7 301 296 175 230 47 96 146 154 153 21 341 185 126 106 129 122 262 256 272 294 299 293 280 216 221 272 284 229 230 265 275 262 258 262 264 260 264 274 268 254 243 238 234 233 234 232 231 231 232 234 234 234 235 236 237 238 239 241 243 246 252 258 262 263 263 262 262 263 264 265 268 269 264 260 259 259 259 261 264 272 280 284 286 289 293
155 268 269 318 296 100 114 208 128 104 78 273 157 97 67 173 153 173 203 193 237 322 299 263 230 212 239 277 273 285 294 282 269 266 273 271 263 266 272 265 254 247 243 236 234 237 235 233 233 233 234 234 234 234 235 236 236 236 238 241 244 250 255 258 260 260 260 260 261 263 264 266 262 255 253 255 256 259 262 267 274 278 279 281 286 290
42 281 287 7 2 77 163 213 118 68 113 54 63 151 221 164 121 108 295 353 73 23 287 269 267 281 311 292 298 349 318 293 289 276 266 266 268 270 263 258 252 249 246 238 235 236 236 234 233 233 233 233 233 233 234 236 236 237 239 240 243 248 252 254 256 258 257 257 260 263 263 262 256 251 253 257 260 264 266 269 271 272 275 280 284 286
152 282 298 44 67 331 289 173 56 28 119 111 221 208 175 89 84 96 343 349 45 265 278 309 287 294 345 300 310 344 314 293 289 278 270 270 269 260 255 256 253 249 246 244 241 239 238 235 232 232 232 233 234 235 236 237 237 238 239 240 241 245 249 253 256 256 255 255 259 262 261 257 253 251 254 260 263 265 266 266 268 271 276 281 282 284
124 287 305 1 197 294 354 47 7 351 79 122 200 174 99 93 310 42 60 343 8 290 284 303 297 279 208 236 292 310 295 290 291 287 280 273 264 254 255 256 255 254 251 246 243 239 237 234 231 230 231 233 234 236 237 237 237 236 237 239 241 246 251 255 255 253 252 254 258 261 262 259 254 252 254 259 261 261 263 266 270 275 277 280 281 285
107 160 288 308 266 303 359 65 245 293 59 49 25 21 33 136 171 196 111 160 182 260 283 314 322 287 224 212 244 273 279 282 286 288 283 273 265 257 257 257 255 252 246 242 239 237 234 232 231 229 229 232 234 235 235 235 234 235 236 237 240 245 250 252 251 249 249 253 259 263 262 258 254 252 255 258 260 260 264 269 273 274 276 279 282 283
80 142 253 303 331 304 275 208 197 181 154 112 67 330 350 87 135 265 324 139 142 178 230 300 313 279 256 208 224 260 273 271 267 274 278 277 274 268 259 257 257 250 244 242 237 235 233 231 231 230 231 233 234 233 233 232 233 234 235 236 239 242 245 247 247 247 249 253 259 261 257 252 251 254 256 258 260 262 266 270 271 273 276 280 279 278
126 159 220 293 309 245 236 237 169 179 171 156 176 194 175 139 117 78 307 294 113 160 190 166 283 279 269 193 215 249 261 264 262 261 271 279 280 279 271 259 253 250 248 243 237 234 232 230 229 229 230 230 229 229 229 230 231 231 233 235 238 240 242 245 246 246 249 254 257 258 255 251 250 253 256 258 260 263 266 269 270 274 276 276 274 276
145 112 169 267 263 231 243 315 79 177 176 149 169 177 147 133 124 132 227 254 212 199 188 119 245 271 261 184 209 243 249 264 269 261 269 279 280 279 278 270 259 251 251 249 243 238 233 232 230 227 227 226 225 226 227 227 228 229 232 234 235 238 241 245 247 248 249 252 255 256 253 250 251 255 257 258 260 264 267 269 271 274 273 271 274 279
118 88 26 274 286 308 315 333 32 56 84 144 215 148 145 155 136 150 176 183 208 212 170 115 247 268 270 202 205 242 253 268 277 271 267 274 279 278 275 275 269 258 257 254 248 244 238 235 231 225 224 223 224 225 224 225 226 228 231 233 233 237 242 244 245 246 246 250 254 253 250 251 254 256 256 257 261 264 266 268 271 271 269 270 276 280
228 169 84 322 321 338 354 351 349 0 51 214 236 172 149 115 98 111 133 99 274 219 165 160 241 259 267 253 256 279 286 288 288 284 273 267 275 281 280 280 275 267 265 259 252 247 239 234 229 225 224 222 222 223 223 224 225 227 229 230 232 237 241 242 241 241 245 249 251 250 250 252 254 254 256 259 262 263 265 269 269 266 266 271 277 278
222 198 155 155 288 292 300 308 310 281 227 198 175 176 176 139 134 152 127 109 244 227 157 175 246 264 278 293 300 297 296 298 298 298 292 276 270 276 281 284 281 274 269 263 256 248 238 234 232 228 226 224 222 222 222 223 224 226 228 230 233 237 238 238 238 240 243 246 248 249 249 249 250 252 255 257 259 263 266 267 264 263 268 273 274 273
96 232 219 201 213 232 249 260 306 73 272 255 227 193 191 189 157 125 111 168 202 186 175 229 251 274 288 291 296 297 298 299 300 303 304 300 293 288 286 287 285 279 273 269 263 254 244 238 234 231 228 226 224 223 223 223 223 224 226 229 232 235 236 237 238 239 243 246 247 247 244 244 248 252 253 252 255 261 263 262 262 267 271 271 270 273
90 292 252 217 235 249 267 287 314 344 281 262 251 205 186 193 166 154 198 209 155 118 253 251 246 267 283 287 294 299 299 301 302 305 307 307 306 303 298 294 290 284 279 275 266 256 250 244 239 234 229 227 225 224 224 224 224 225 227 230 233 234 234 236 237 239 242 244 245 243 240 243 248 250 250 250 254 258 260 262 265 268 268 269 272 277
121 263 256 213 262 273 280 281 280 275 264 260 258 240 209 189 181 198 223 212 153 191 256 266 271 275 281 288 293 292 292 297 301 303 305 306 305 303 301 298 295 291 288 283 274 263 253 248 245 236 230 228 225 223 223 222 223 224 227 230 232 233 234 234 235 238 241 241 240 240 242 246 249 247 247 249 253 255 258 262 264 265 268 273 276 278
147 251 266 152 293 289 280 274 268 256 269 277 261 244 222 204 199 212 232 224 195 234 258 271 280 281 279 280 282 284 289 292 294 297 301 303 305 307 308 305 300 296 293 289 283 274 259 252 248 240 235 230 224 222 220 219 219 220 222 226 227 229 231 232 233 236 238 237 237 240 244 246 247 245 247 251 252 252 255 259 263 267 272 276 278 279
185 263 301 76 318 293 291 320 305 221 234 270 274 265 236 217 217 224 241 242 225 247 260 270 281 281 273 269 271 276 284 292 297 302 306 308 311 315 315 312 307 303 300 296 291 286 274 259 250 243 236 231 227 223 220 218 218 217 219 222 224 226 228 229 231 234 236 236 237 241 243 242 243 246 250 251 249 249 254 259 265 270 274 276 279 281
158 264 353 51 344 282 277 352 325 281 252 264 279 282 257 207 212 224 227 214 207 238 266 281 283 278 278 285 289 289 293 304 308 311 313 314 315 316 314 310 308 306 305 304 301 297 289 272 256 245 237 234 231 226 222 219 215 212 215 218 220 223 225 226 229 233 235 236 237 239 238 237 242 247 250 249 248 250 256 263 267 270 274 277 280 282
140 147 34 54 314 273 287 324 315 316 320 295 273 259 222 194 223 252 248 223 212 216 268 280 270 279 296 308 310 310 315 318 316 315 315 314 313 312 308 306 306 307 308 309 307 304 299 286 265 249 241 238 233 228 226 220 212 210 214 216 217 219 220 223 227 230 233 235 237 238 237 239 243 248 250 251 251 254 259 262 265 269 274 279 281 281
129 124 141 156 235 272 303 323 328 339 322 283 211 165 197 224 226 234 266 263 240 212 224 259 278 289 296 303 307 312 316 315 314 313 309 306 303 301 302 304 307 310 310 310 309 307 303 295 277 259 249 243 237 234 231 221 214 213 214 213 214 216 217 220 223 226 230 234 236 238 239 243 246 249 252 252 252 255 259 260 264 271 276 279 279 278
141 132 156 170 194 270 317 354 354 306 247 248 273 214 211 210 196 206 255 273 270 252 237 256 276 280 285 297 305 309 310 309 311 309 300 294 289 289 300 308 312 314 314 313 312 310 308 302 288 267 253 246 240 233 224 215 211 210 209 209 211 213 215 219 220 223 228 232 236 239 240 243 247 250 252 251 253 256 258 260 266 272 275 276 276 276
147 146 157 171 197 280 337 35 318 275 287 317 322 268 235 135 141 281 285 277 281 286 269 261 270 277 292 306 309 312 311 309 308 299 275 276 290 306 311 314 317 317 314 312 310 308 307 304 294 277 262 251 238 224 214 210 207 203 203 206 209 211 214 217 219 222 226 231 236 239 241 244 247 249 250 252 255 256 258 263 268 271 273 275 277 278
136 139 165 256 222 188 269 253 261 306 324 332 325 303 324 1 326 316 295 281 288 296 286 274 289 305 316 316 315 317 315 311 311 304 285 305 324 326 321 319 320 318 315 314 313 310 309 305 297 286 271 253 234 222 214 207 203 200 200 204 207 211 213 215 218 221 225 231 236 240 242 245 246 247 250 253 254 256 261 266 268 270 273 276 276 277
103 145 169 204 253 102 85 298 316 343 317 267 259 275 257 221 248 235 240 277 286 289 291 307 318 323 323 320 320 322 322 320 318 319 328 333 333 331 328 326 325 323 321 319 317 314 312 309 301 290 275 254 237 228 215 204 200 198 199 203 207 210 213 215 219 222 225 232 237 241 244 245 245 246 250 253 254 257 263 266 267 271 275 274 273 274
44 44 115 131 305 67 109 256 272 263 254 245 256 275 273 188 171 117 313 274 270 300 342 337 328 323 321 320 321 326 331 325 316 317 327 331 330 330 329 327 324 324 323 321 321 318 314 311 303 291 274 252 241 230 213 203 200 198 200 206 209 211 214 218 222 224 228 234 239 242 244 244 243 246 249 253 257 260 264 267 270 274 276 274 271 273
37 20 63 141 244 194 151 215 248 245 257 265 271 286 290 164 143 20 327 302 309 336 346 339 325 320 320 321 323 326 324 314 308 310 318 322 322 322 322 321 320 321 321 322 324 322 317 311 300 284 267 254 247 233 212 204 201 200 204 209 210 213 220 225 228 228 231 236 241 242 241 240 241 245 250 254 259 264 267 270 273 274 273 272 270 272
63 28 85 157 202 190 179 229 271 266 259 267 278 285 226 167 79 351 312 309 327 333 334 332 323 318 318 320 321 316 307 301 298 302 310 316 317 316 317 319 318 319 321 323 325 325 322 313 298 282 271 265 254 232 214 206 201 203 209 209 211 220 228 232 231 229 230 236 239 238 237 237 240 245 252 257 261 267 269 270 271 270 270 272 273 273
157 126 72 133 178 176 175 210 285 289 257 231 243 256 172 344 329 307 298 314 326 323 322 324 320 315 316 316 314 308 305 305 304 307 310 313 313 312 314 318 319 320 323 326 328 331 327 316 302 289 279 272 257 234 219 207 204 208 209 208 218 229 234 232 228 226 229 233 235 234 234 237 241 246 252 256 261 266 269 267 265 267 269 271 273 276
181 179 251 214 185 157 49 172 312 293 256 174 104 324 3 323 306 302 306 317 318 315 316 317 312 312 316 315 313 312 311 310 310 311 311 311 311 311 313 317 320 321 324 328 330 332 330 321 309 297 287 276 258 239 223 210 210 212 208 214 229 235 233 228 225 225 228 230 230 231 233 237 241 244 248 253 259 263 265 263 263 266 268 269 271 275
192 189 274 257 212 131 135 218 241 281 281 201 47 300 275 269 292 304 310 313 316 318 317 313 311 315 317 314 312 311 310 309 309 311 312 312 313 315 317 321 323 325 327 328 328 329 328 322 313 305 296 281 260 242 226 217 215 212 211 225 235 233 225 225 223 221 224 226 226 228 231 236 239 241 245 250 254 257 257 258 261 265 265 266 269 272
219 197 192 229 231 206 223 242 257 286 296 290 240 262 279 290 296 297 296 302 310 313 313 314 313 314 315 314 310 308 307 308 308 310 312 312 314 317 320 322 323 325 325 325 325 326 326 322 316 309 299 284 265 246 232 224 219 215 222 232 233 224 222 223 219 218 222 222 221 224 228 233 236 239 242 245 246 248 249 252 259 263 264 265 266 267
272 169 145 208 268 274 262 264 277 294 299 298 286 278 291 301 302 302 305 306 306 307 308 309 306 306 309 310 307 306 306 308 308 310 313 315 317 320 322 322 323 324 325 324 325 325 325 324 321 314 303 291 274 254 240 231 223 223 231 234 227 221 222 219 215 217 219 218 219 222 224 228 233 236 240 240 238 239 241 246 254 260 263 264 264 263
315 51 173 246 300 317 302 290 299 301 298 302 305 302 299 298 295 306 313 309 307 307 305 301 300 302 304 305 303 301 303 306 310 311 315 319 320 320 323 322 321 322 324 323 322 323 323 324 322 318 310 301 287 266 248 236 230 232 236 234 225 220 218 214 213 215 215 215 217 219 221 225 230 234 237 234 230 231 235 240 248 255 257 258 259 260
321 350 307 296 298 294 285 286 293 294 288 290 295 300 305 308 307 308 307 302 299 299 297 296 298 299 299 300 301 301 304 309 313 314 316 319 320 319 319 320 319 320 321 321 321 322 323 321 320 318 313 307 298 281 258 242 238 238 235 229 224 218 212 210 212 213 214 215 216 217 221 224 226 230 233 228 223 225 230 234 241 247 250 250 253 257
324 340 317 313 300 282 283 295 306 308 295 281 281 294 303 306 305 305 303 298 295 295 296 298 297 294 290 290 293 299 306 308 311 314 314 315 316 316 315 318 320 320 320 320 319 319 318 317 316 315 312 308 304 291 267 250 247 243 234 226 222 215 209 209 210 211 213 214 214 216 220 222 225 229 231 227 222 223 228 232 235 241 245 247 250 256
356 335 316 334 326 303 300 309 318 319 305 294 299 305 303 302 304 305 302 300 300 301 302 302 302 302 302 301 301 303 305 307 310 312 312 312 313 314 315 318 320 320 319 318 317 315 315 315 314 314 312 310 307 297 275 259 253 246 235 225 219 214 211 209 207 207 210 211 212 215 216 217 221 225 227 227 225 225 229 231 231 235 246 256 257 255
2 324 314 321 307 291 293 302 309 305 293 293 301 305 305 306 306 302 300 302 303 304 305 305 307 311 313 315 316 316 312 310 311 311 310 312 314 316 319 320 320 319 317 316 315 312 312 314 315 315 315 314 311 302 283 266 258 248 236 225 218 216 214 209 205 206 208 210 211 213 213 215 217 221 224 226 224 224 230 234 231 231 240 253 258 254